www.pogodaiklimat.ru

Погода и климат >> Архив погоды >> Беларусь >> Пружаны


ПОГОДА в Пружанах

  • Прогноз погоды в Пружанах
  • Монитор погоды в Пружанах
  • Климат города

АРХИВ ПОГОДЫ в Пружанах

Время (UTC), дата Ветер
(напр.,м/с)
 
Видим.   Явления Облачность Т
(С)
Тd
(С)
f
(%)
Тe
(С)
Тes
(С)
Комфортность P
(гПа)
Po
(гПа)
Тmin
(С)
Tmax
(С)
R
(мм)
R24
(мм)
S
(см)
06 14.06 С 3 20 км 9/0
[Ac trans]
+18.3 +13.1 72 +19 +21 1009.9 990.9 +15.1
09 14.06 С 3 20 км 9/5 600 м
[Cb calv As trans]
+21.5 +12.5 57 +24 +27 комфорт 1010.3 991.6
12 14.06 СЗ 3 20 км 10/6 600 м
[Cb calv Ac und]
+22.1 +12.6 55 +25 +26 комфорт 1010.5 991.8
15 14.06 С 3 20 км 8/5 600 м
[Cb calv Ac trans]
+23.6 +10.2 43 +25 +26 комфорт 1009.5 990.8
18 14.06 С 4 20 км 4/4 600 м
[Cb calv]
+21.5 +11.4 53 +24 +24 комфорт 1010.1 991.4 +24.8
06 15.06 С 4 20 км 10/10 570 м
[Sc]
+16.6 +13.6 82 +16 +16 1012.9 993.7 +12.0
09 15.06 С 4 20 км 8/8 1000 м
[Cu Sc]
+20.7 +11.8 57 +23 +25 комфорт 1013.0 994.0
12 15.06 С 4 20 км 8/5 600 м
[Cb calv Ac trans]
+23.3 +10.7 45 +25 +29 комфорт 1012.6 993.8
15 15.06 С 4 20 км 8/6 600 м
[Cb calv Ac trans]
+24.9 +10.6 41 +26 +27 жарко 1012.2 993.5
18 15.06 СВ 3
{10}
20 км 6/3 600 м
[Cb calv Ac trans]
+21.1 +11.8 55 +23 +23 комфорт 1013.6 994.6 +25.4
06 16.06 С 3 20 км 1/0
[Ci fib]
+19.0 +12.4 66 +20 +26 1016.2 997.1 +10.4
09 16.06 С 5 20 км 5/5 1000 м
[Cu hum]
+22.5 +9.5 44 +24 +28 комфорт 1015.5 996.7
12 16.06 С 3 20 км 6/5 1000 м
[Cu hum Ci fib]
+24.1 +8.4 37 +25 +31 комфорт 1015.0 996.3
15 16.06 СВ 3 20 км 8/6 300 м
[Sc diur, vesp Ac trans]
+26.4 +7.4 30 +26 +28 жарко 1014.2 995.6
18 16.06 СВ 2 20 км 5/3 600 м
[Sc diur, vesp Ac trans Ci fib]
+24.2 +11.0 43 +25 +26 комфорт 1014.2 995.5 +26.6
06 17.06 В 3 20 км 3/0
[Ci fib]
+18.8 +12.9 69 +20 +25 1016.3 997.2 +11.0
09 17.06 СВ 3 20 км 8/3 600 м
[Cu med, cong Ci fib]
+24.4 +9.9 40 +25 +33 комфорт 1016.3 997.5
12 17.06 СВ 4 20 км 9/4 1000 м
[Cu med, cong Ci sp]
+26.7 +9.8 35 +27 +32 жарко 1015.0 996.4
15 17.06 С 3 20 км 9/5 1000 м
[Sc diur, vesp Ci fib]
+27.1 +9.7 34 +28 +30 жарко 1014.1 995.5
18 17.06 ЮВ 2 20 км 8/0
[Ac trans Ci fib]
+24.9 +10.6 41 +26 +26 жарко 1014.3 995.6 +27.8
06 18.06 В 1 15 км 10/0
[Ac und]
+20.1 +15.1 73 +24 +26 комфорт 1016.6 997.5 +16.9 0.1
09 18.06 СВ 2 20 км 10/0
[Ac trans Cc]
+24.9 +12.8 47 +27 +34 жарко 1016.5 997.7
12 18.06 СВ 4 20 км 10/3 1000 м
[Cu hum Ac trans Cc]
+27.7 +11.3 36 +29 +32 жарко 1015.8 997.3
15 18.06 С 5 20 км 10/3 1000 м
[Sc diur, vesp Ci fib]
+28.0 +11.8 37 +29 +31 жарко 1014.7 996.2
18 18.06 С 3 20 км 5/3 600 м
[Cb calv Ac trans Ci fib]
+25.5 +12.8 45 +27 +27 жарко 1015.5 996.9 +28.9
06 19.06 штиль 0 20 км 9/0
[Ac trans]
+20.3 +13.9 67 +22 +26 комфорт 1017.7 998.6 +16.4
09 19.06 З 4 20 км 3/1 600 м
[Cu hum Ci sp]
+26.2 +13.3 45 +28 +37 жарко 1017.2 998.5
12 19.06 СЗ 4 20 км 8/6 600 м
[Cu med, cong Ci sp]
+26.7 +12.4 41 +28 +32 жарко 1016.7 998.0
15 19.06 З 6-10
{10}
20 км 4/4 600 м
[Sc diur, vesp]
+26.8 +9.2 33 +27 +28 жарко 1016.2 997.5
18 19.06 СЗ 4
{10}
20 км 8/0
[Ac trans Ci fib]
+23.8 +10.3 42 +25 +25 комфорт 1016.9 998.1 +28.6
06 20.06 СЗ 3 10 км ясно +21.2 +12.6 58 +23 +29 комфорт 1021.0 1001.5 +12.2
09 20.06 З 6
{11}
10 км 3 балла +23.9 +9.1 39 +25 +29 комфорт 1020.0 1000.6
12 20.06 З 6
{10}
10 км 3 балла +27.0 +9.3 33 +27 +31 жарко 1019.0 999.9
15 20.06 ЮЗ 5 10 км ясно +27.4 +9.7 33 +28 +31 жарко 1018.0 998.9
18 20.06 З 3 10 км ясно +25.4 +10.4 39 +26 +26 жарко 1017.0 997.8 +27.8

 

Местоположение метеостанции Пружаны (Брестская область, Беларусь): широта 52.55 долгота 24.49 высота над уровнем моря 167 м.

В архиве по умолчанию представлена погода в Пружанах за последнюю неделю. Архивные данные за месяц целиком и за предыдущие месяцы, начиная с января 2011 года, Вы можете получить, выбрав интересующий диапазон дат из раскрывающегося списка и нажав кнопку "Ввод!".


*Определитесь, кто Вы:
робот инопланетянин человек

Внимание! Время в таблицах - всемирное. Для получения местного времени необходимо прибавить поправку, которая в Пружанах равна 3 ч.

Смотрите также архив погоды в соседних городах и на ближайших метеорологических станциях:

Погода в Дрогичине (Брестская область, Беларусь) (57 км)
Погода в Ивацевичах (Брестская область, Беларусь) (61 км)
Погода в Волковыске (Гродненская область, Беларусь) (69 км)
Погода в Бресте (Брестская область, Беларусь) (72 км)
Погода в Высоком (Брестская область, Беларусь) (77 км)
Погода в Terespol (Польша) (80 км)
Погода в Bialystok (Польша) (108 км)
Погода в Любешове (Волынская область, Украина) (111 км)
Погода в Пинске (Брестская область, Беларусь) (117 км)
Погода в Барановичах (Брестская область, Беларусь) (119 км)

Пояснения к столбцам:

Ветер - указаны скорость ветра в м/с - средняя за 10 мин, порывы в срок и между сроками (в фигурных скобках) и направление, откуда дует ветер: С - северный, СВ - северо-восточный, В - восточный, ЮВ - юго-восточный, Ю - южный, ЮЗ - юго-западный, З - западный, СЗ - северо-западный.
Видимость - горизонтальная дальность видимости в метрах или километрах. При видимости от 1 до 10 км при отсутствии осадков обычно наблюдается дымка, при ухудшении видимости до 1 км и менее - туман. В сухую погоду видимость может ухудшаться дымом, пылью или мглою.
Явления - указаны атмосферные явления, наблюдавшиеся в срок или в последний час перед сроком; фигурными скобками обозначены явления, наблюдавшиеся между сроками (за 1-3 часа до срока); квадратными скобками обозначены град или гололедные отложения с указанием их диаметра в мм.
Облачность - указаны через наклонную черту общая и нижняя облачность в баллах и высота нижней границы облаков в метрах; квадратными скобками обозначены формы облаков: Ci - перистые, Cs - перисто-слоистые, Cc - перисто-кучевые, Ac - высококучевые, As - высокослоистые, Sc - слоисто-кучевые, Ns - слоисто-дождевые, Cu - кучевые, Cb - кучево-дождевые. Подробнее классификацию облаков см. в Атласе облаков (PDF).
T - Температура воздуха - температура, измеренная на высоте 2 м над землей.
Td - Температура точки росы - температура, при понижении до которой содержащийся в воздухе водяной пар достигнет насыщения.
f - Относительная влажность воздуха - влажноcть воздуха, измеренная на высоте 2 м над землей.
Te - Эффективная температура - температура, которую ощущает одетый по сезону человек в тени. Характеристика душности погоды. При расчете учитывается влияние влажности воздуха и скорости ветра на теплоощущения человека.
Tes - Эффективная температура на солнце - температура, которую ощущает человек, с поправкой на солнечный нагрев. Характеристика знойности погоды. Зависит от высоты солнца над горизонтом, облачности и скорости ветра. Ночью, в пасмурную погоду, а также при ветре 12 м/с и более поправка равна нулю.
P - Атмосферное давление - приведенное к уровню моря атмосферное давление.
Po - Атмосферное давление - измеренное на уровне метеостанции атмосферное давление.
Tmin - Минимальная температура - минимум температуры воздуха на высоте 2 м над землей.
Tmax - Максимальная температура - максимум температуры воздуха на высоте 2 м над землей.
R - Количество осадков - Количество выпавших осадков за период времени, мм. При наведении курсора мыши на число - период времени, за который выпало указанное количество осадков.
R24 - Количество осадков - Количество выпавших осадков за 24 часа, мм.
S - Снежный покров - Высота снежного покрова, см. При наведении курсора мыши на число - состояние снежного покрова и степень покрытия местности в баллах.